Flag for Germany Weather past 2 weeks in Maintal, Hesse, Germany

Now
70 °F

Overcast.


Feels Like: 76 °F
Forecast: 60 / 76 °F
Wind: 3 mph from North

Location: Frankfurt / M-Flughafen

Current Time: Jul 30, 2014 at 11:34:10 PM

Latest Report: Jul 30, 2014 at 10:00 PM


Visibility: 31 mi

Pressure: 29.93 "Hg

Humidity: 62%

Dew point: 57 °F

Location of MaintalLocation

Historic Weather in Maintal — Graph

°F

Maintal temperature yesterday

Maximum temperature yesterday: 77 °F (at 1:00 PM)
Minimum temperature yesterday: 66 °F (at 4:00 AM)
Average temperature yesterday: 70 °F

Past Weeks' High & Low Weather Summary

 TemperatureHumidityPressure
High93 °F (Jul 19, 5:00 PM)94% (Jul 29, 4:00 AM)30.19 "Hg (Jul 29, 4:00 AM)
Low59 °F (Jul 26, 5:00 AM)22% (Jul 18, 6:00 PM)29.74 "Hg (Jul 29, 3:00 PM)
Average73 °F65%29.93 "Hg
* Reported Jul 15 10:00 PM — Jul 30 10:00 PM, Maintal, Weather by CustomWeather, © 2014

Note: Actual official high and low records may vary slightly from our data, if they occured in-between our weather recording intervals... More about our weather records

Advertising

Maintal weather history for previous 24 hours

 ConditionsComfort  
Time TempWeatherWind HumidityBarometerVisibility
10:00 PM
Jul 30
70 °FOvercast.3 mph62%29.93 "Hg31 mi
9:00 PM72 °FOvercast.3 mph62%29.91 "Hg31 mi
8:00 PM72 °FOvercast.2 mph65%29.89 "Hg31 mi
7:00 PM71 °FOvercast.3 mph66%29.88 "Hg19 mi
6:00 PM72 °FOvercast.5 mph67%29.87 "Hg19 mi
5:00 PM72 °FOvercast.5 mph68%29.87 "Hg14 mi
4:00 PM72 °FOvercast.5 mph69%29.86 "Hg14 mi
3:00 PM72 °FOvercast.6 mph70%29.85 "Hg14 mi
2:00 PM72 °FPartly sunny.7 mph73%29.83 "Hg16 mi
1:00 PM72 °FOvercast.6 mph78%29.83 "Hg16 mi
12:00 PM72 °FOvercast.3 mph80%29.81 "Hg16 mi
11:00 AM71 °FOvercast.3 mph85%29.80 "Hg11 mi
10:00 AM70 °FLight rain. Overcast.1 mph82%29.80 "Hg11 mi
9:00 AM68 °FLight rain. Overcast.1 mph87%29.80 "Hg11 mi
8:00 AM68 °FLight rain. Overcast.2 mph88%29.78 "Hg9 mi
7:00 AM67 °FLight rain. Overcast.2 mph89%29.77 "Hg7 mi
6:00 AM67 °FLight rain. Overcast.2 mph90%29.77 "Hg9 mi
4:00 AM67 °FLight rain. Low clouds.2 mph93%29.75 "Hg8 mi
3:00 AM67 °FLow clouds.2 mph89%29.76 "Hg11 mi
2:00 AM67 °FOvercast.3 mph90%29.75 "Hg11 mi
1:00 AM67 °FOvercast.1 mph93%29.77 "Hg11 mi
12:00 AM67 °FOvercast.1 mph92%29.77 "Hg16 mi
11:00 PM
Jul 29
68 °FOvercast.2 mph89%29.77 "Hg16 mi
Weather by CustomWeather, © 2014

See weather overviewHow to use our weather pages